User: anonymous   Login
Location: Stull Observatory
(42.2506°N, 77.7903°W)
Time: 01:40:19
(UTC-04:00)
Language:

Abrixas rocket - Orbit

View from above orbital plane
View from above orbital plane
View from above satellite
View from above satellite

Ground track
Ground track

The orbit data is extracted from the following two-line orbital elements,

1 25723U 99022C   15144.70181924  .00007116  00000-0  18180-3 0  9994
2 25723 048.4195 192.3567 0014649 022.5232 068.0703 15.40362445889626
Epoch (UTC): 24 May 2015 16:50:37
Eccentricity: 0.0014649
inclination: 48.4195°
perigee height: 435 km
apogee height: 455 km
right ascension of ascending node: 192.3567°
argument of perigee: 22.5232°
revolutions per day: 15.40362445
mean anomaly at epoch: 68.0703°
orbit number at epoch: 88962

The dashed part of the orbit path shows where the satellite is in the earth's shadow,  

DLR